TimeCST,TemperatureF,Dew PointF,Humidity,Sea Level PressureIn,VisibilityMPH,Wind Direction,Wind SpeedMPH,Gust SpeedMPH,PrecipitationIn,Events,Conditions,WindDirDegrees,DateUTC
12:54 AM,30.9,24.1,76,30.43,10.0,NNE,6.9,-,N/A,,Clear,20,2012-11-16 06:54:00
1:54 AM,28.9,23.0,78,30.45,10.0,North,4.6,-,N/A,,Clear,360,2012-11-16 07:54:00
2:54 AM,30.0,23.0,75,30.45,10.0,North,3.5,-,N/A,,Clear,350,2012-11-16 08:54:00
3:54 AM,27.0,19.9,75,30.47,10.0,North,5.8,-,N/A,,Clear,10,2012-11-16 09:54:00
4:54 AM,25.0,19.0,78,30.48,10.0,NNE,6.9,-,N/A,,Clear,20,2012-11-16 10:54:00
5:54 AM,26.1,21.0,81,30.48,10.0,Calm,Calm,-,N/A,,Clear,0,2012-11-16 11:54:00
6:54 AM,25.0,19.9,81,30.50,10.0,NNE,4.6,-,N/A,,Clear,30,2012-11-16 12:54:00
7:54 AM,30.0,23.0,75,30.52,10.0,NE,4.6,-,N/A,,Clear,40,2012-11-16 13:54:00
8:54 AM,33.1,24.1,70,30.53,10.0,ENE,8.1,-,N/A,,Clear,70,2012-11-16 14:54:00
9:54 AM,37.0,26.1,65,30.53,10.0,East,8.1,-,N/A,,Clear,80,2012-11-16 15:54:00
10:18 AM,37.4,26.6,65,30.50,10.0,East,6.9,-,N/A,,Mostly Cloudy,90,2012-11-16 16:18:00
10:54 AM,37.9,28.0,68,30.54,10.0,East,8.1,-,N/A,,Overcast,90,2012-11-16 16:54:00
11:54 AM,39.0,28.9,67,30.53,10.0,ESE,8.1,-,N/A,,Overcast,110,2012-11-16 17:54:00
12:54 PM,41.0,30.0,65,30.53,10.0,ENE,4.6,-,N/A,,Overcast,70,2012-11-16 18:54:00
1:54 PM,41.0,30.0,65,30.52,10.0,ESE,8.1,-,N/A,,Overcast,110,2012-11-16 19:54:00
2:54 PM,42.1,30.9,65,30.50,10.0,East,6.9,-,N/A,,Overcast,100,2012-11-16 20:54:00
3:33 PM,41.0,30.2,65,30.46,10.0,ESE,4.6,-,N/A,,Scattered Clouds,120,2012-11-16 21:33:00
3:54 PM,39.9,30.9,70,30.50,10.0,SE,6.9,-,N/A,,Clear,130,2012-11-16 21:54:00
4:54 PM,36.0,30.0,79,30.50,10.0,ESE,4.6,-,N/A,,Clear,110,2012-11-16 22:54:00
5:54 PM,33.1,30.0,89,30.50,10.0,East,3.5,-,N/A,,Clear,90,2012-11-16 23:54:00
6:54 PM,30.9,28.0,89,30.49,10.0,ESE,3.5,-,N/A,,Clear,110,2012-11-17 00:54:00
7:54 PM,33.1,28.9,85,30.46,10.0,SE,6.9,-,N/A,,Clear,130,2012-11-17 01:54:00
8:54 PM,33.1,30.0,89,30.47,10.0,SE,4.6,-,N/A,,Clear,130,2012-11-17 02:54:00
9:20 PM,33.8,30.2,87,30.43,9.0,SE,3.5,-,N/A,,Mostly Cloudy,130,2012-11-17 03:20:00
9:54 PM,35.1,32.0,89,30.47,10.0,Calm,Calm,-,N/A,,Overcast,0,2012-11-17 03:54:00
10:54 PM,37.0,34.0,89,30.48,6.0,SSE,6.9,-,N/A,,Overcast,160,2012-11-17 04:54:00
11:54 PM,37.0,34.0,89,30.49,6.0,SSE,6.9,-,N/A,,Overcast,150,2012-11-17 05:54:00